owner,sensor,date,latitude,longitude,vertical_datum,wind_speed,wind_to_direction,wind_speed_of_gust,qcFlag 
LUMCON,ioos:station:LUMCON:101:1,2017-01-01T00:00:00Z,29.2533,-90.6633,1.0,6.8,167.0,-9999.0,'1111122,1111122,1111122' 
LUMCON,ioos:station:LUMCON:101:1,2017-01-01T00:15:00Z,29.2533,-90.6633,1.0,4.9,158.0,-9999.0,'1111122,1111122,1111122' 
LUMCON,ioos:station:LUMCON:101:1,2017-01-01T00:30:00Z,29.2533,-90.6633,1.0,4.8,155.0,-9999.0,'1111122,1111122,1111122' 
LUMCON,ioos:station:LUMCON:101:1,2017-01-01T00:45:00Z,29.2533,-90.6633,1.0,5.6,139.0,-9999.0,'1111122,1111122,1111122' 
LUMCON,ioos:station:LUMCON:101:1,2017-01-01T01:00:00Z,29.2533,-90.6633,1.0,5.3,173.0,-9999.0,'1111122,1111122,1111122' 
LUMCON,ioos:station:LUMCON:101:1,2017-01-01T01:15:00Z,29.2533,-90.6633,1.0,5.9,157.0,-9999.0,'1111122,1111122,1111122' 
LUMCON,ioos:station:LUMCON:101:1,2017-01-01T01:30:00Z,29.2533,-90.6633,1.0,4.7,163.0,-9999.0,'1111122,1111122,1111122' 
LUMCON,ioos:station:LUMCON:101:1,2017-01-01T01:45:00Z,29.2533,-90.6633,1.0,4.9,162.0,-9999.0,'1111122,1111122,1111122' 
LUMCON,ioos:station:LUMCON:101:1,2017-01-01T02:00:00Z,29.2533,-90.6633,1.0,-9999.0,0.0,-9999.0,'1111122,1114422,1111122' 
LUMCON,ioos:station:LUMCON:101:1,2017-01-01T02:15:00Z,29.2533,-90.6633,1.0,3.8,154.0,-9999.0,'1111122,1111122,1111122' 
LUMCON,ioos:station:LUMCON:101:1,2017-01-01T02:30:00Z,29.2533,-90.6633,1.0,4.9,134.0,-9999.0,'1111122,1111122,1111122' 
LUMCON,ioos:station:LUMCON:101:1,2017-01-01T02:45:00Z,29.2533,-90.6633,1.0,6.6,147.0,-9999.0,'1111122,1111122,1111122' 
LUMCON,ioos:station:LUMCON:101:1,2017-01-01T03:00:00Z,29.2533,-90.6633,1.0,6.8,163.0,-9999.0,'1111122,1111122,1111122' 
LUMCON,ioos:station:LUMCON:101:1,2017-01-01T03:15:00Z,29.2533,-90.6633,1.0,3.7,163.0,-9999.0,'1111122,1111122,1111122' 
LUMCON,ioos:station:LUMCON:101:1,2017-01-01T03:30:00Z,29.2533,-90.6633,1.0,5.1,155.0,-9999.0,'1111122,1111122,1111122' 
LUMCON,ioos:station:LUMCON:101:1,2017-01-01T03:45:00Z,29.2533,-90.6633,1.0,-9999.0,0.0,-9999.0,'1111122,1114422,1111122' 
LUMCON,ioos:station:LUMCON:101:1,2017-01-01T04:00:00Z,29.2533,-90.6633,1.0,7.4,249.0,-9999.0,'1111122,1111122,1111122' 
LUMCON,ioos:station:LUMCON:101:1,2017-01-01T04:15:00Z,29.2533,-90.6633,1.0,8.5,185.0,-9999.0,'1111122,1111122,1111122' 
LUMCON,ioos:station:LUMCON:101:1,2017-01-01T04:30:00Z,29.2533,-90.6633,1.0,5.8,159.0,-9999.0,'1111122,1111122,1111122' 
LUMCON,ioos:station:LUMCON:101:1,2017-01-01T04:45:00Z,29.2533,-90.6633,1.0,4.8,159.0,-9999.0,'1111122,1111122,1111122' 
LUMCON,ioos:station:LUMCON:101:1,2017-01-01T05:00:00Z,29.2533,-90.6633,1.0,7.2,172.0,-9999.0,'1111122,1111122,1111122' 
LUMCON,ioos:station:LUMCON:101:1,2017-01-01T05:15:00Z,29.2533,-90.6633,1.0,7.8,166.0,-9999.0,'1111122,1111122,1111122' 
LUMCON,ioos:station:LUMCON:101:1,2017-01-01T05:30:00Z,29.2533,-90.6633,1.0,6.4,160.0,-9999.0,'1111122,1111122,1111122' 
LUMCON,ioos:station:LUMCON:101:1,2017-01-01T05:45:00Z,29.2533,-90.6633,1.0,6.9,174.0,-9999.0,'1111122,1111122,1111122' 
LUMCON,ioos:station:LUMCON:101:1,2017-01-01T06:00:00Z,29.2533,-90.6633,1.0,6.8,170.0,-9999.0,'1111122,1111122,1111122' 
LUMCON,ioos:station:LUMCON:101:1,2017-01-01T06:15:00Z,29.2533,-90.6633,1.0,5.5,178.0,-9999.0,'1111122,1111122,1111122' 
LUMCON,ioos:station:LUMCON:101:1,2017-01-01T06:30:00Z,29.2533,-90.6633,1.0,6.1,176.0,-9999.0,'1111122,1111122,1111122' 
LUMCON,ioos:station:LUMCON:101:1,2017-01-01T06:45:00Z,29.2533,-90.6633,1.0,5.2,171.0,-9999.0,'1111122,1111122,1111122' 
LUMCON,ioos:station:LUMCON:101:1,2017-01-01T07:00:00Z,29.2533,-90.6633,1.0,4.9,182.0,-9999.0,'1111122,1111122,1111122' 
LUMCON,ioos:station:LUMCON:101:1,2017-01-01T07:15:00Z,29.2533,-90.6633,1.0,4.2,179.0,-9999.0,'1111122,1111122,1111122' 
LUMCON,ioos:station:LUMCON:101:1,2017-01-01T07:30:00Z,29.2533,-90.6633,1.0,5.9,176.0,-9999.0,'1111122,1111122,1111122' 
LUMCON,ioos:station:LUMCON:101:1,2017-01-01T07:45:00Z,29.2533,-90.6633,1.0,6.7,175.0,-9999.0,'1111122,1111122,1111122' 
LUMCON,ioos:station:LUMCON:101:1,2017-01-01T08:00:00Z,29.2533,-90.6633,1.0,4.0,166.0,-9999.0,'1111122,1111122,1111122' 
LUMCON,ioos:station:LUMCON:101:1,2017-01-01T08:15:00Z,29.2533,-90.6633,1.0,5.3,171.0,-9999.0,'1111122,1111122,1111122' 
LUMCON,ioos:station:LUMCON:101:1,2017-01-01T08:30:00Z,29.2533,-90.6633,1.0,4.3,179.0,-9999.0,'1111122,1111122,1111122' 
LUMCON,ioos:station:LUMCON:101:1,2017-01-01T08:45:00Z,29.2533,-90.6633,1.0,5.8,180.0,-9999.0,'1111122,1111122,1111122' 
LUMCON,ioos:station:LUMCON:101:1,2017-01-01T09:00:00Z,29.2533,-90.6633,1.0,5.7,167.0,-9999.0,'1111122,1111122,1111122' 
LUMCON,ioos:station:LUMCON:101:1,2017-01-01T09:15:00Z,29.2533,-90.6633,1.0,4.7,174.0,-9999.0,'1111122,1111122,1111122' 
LUMCON,ioos:station:LUMCON:101:1,2017-01-01T09:30:00Z,29.2533,-90.6633,1.0,5.1,176.0,-9999.0,'1111122,1111122,1111122' 
LUMCON,ioos:station:LUMCON:101:1,2017-01-01T09:45:00Z,29.2533,-90.6633,1.0,3.6,168.0,-9999.0,'1111122,1111122,1111122' 
LUMCON,ioos:station:LUMCON:101:1,2017-01-01T10:00:00Z,29.2533,-90.6633,1.0,4.5,187.0,-9999.0,'1111122,1111122,1111122' 
LUMCON,ioos:station:LUMCON:101:1,2017-01-01T10:15:00Z,29.2533,-90.6633,1.0,5.4,168.0,-9999.0,'1111122,1111122,1111122' 
LUMCON,ioos:station:LUMCON:101:1,2017-01-01T10:30:00Z,29.2533,-90.6633,1.0,5.4,180.0,-9999.0,'1111122,1111122,1111122' 
LUMCON,ioos:station:LUMCON:101:1,2017-01-01T10:45:00Z,29.2533,-90.6633,1.0,5.7,176.0,-9999.0,'1111122,1111122,1111122' 
LUMCON,ioos:station:LUMCON:101:1,2017-01-01T11:00:00Z,29.2533,-90.6633,1.0,3.3,168.0,-9999.0,'1111122,1111122,1111122' 
LUMCON,ioos:station:LUMCON:101:1,2017-01-01T11:15:00Z,29.2533,-90.6633,1.0,4.7,169.0,-9999.0,'1111122,1111122,1111122' 
LUMCON,ioos:station:LUMCON:101:1,2017-01-01T11:30:00Z,29.2533,-90.6633,1.0,5.0,167.0,-9999.0,'1111122,1111122,1111122' 
LUMCON,ioos:station:LUMCON:101:1,2017-01-01T11:45:00Z,29.2533,-90.6633,1.0,3.7,174.0,-9999.0,'1111122,1111122,1111122' 
LUMCON,ioos:station:LUMCON:101:1,2017-01-01T12:00:00Z,29.2533,-90.6633,1.0,3.4,168.0,-9999.0,'1111122,1111122,1111122' 
LUMCON,ioos:station:LUMCON:101:1,2017-01-01T12:15:00Z,29.2533,-90.6633,1.0,3.2,184.0,-9999.0,'1111122,1111122,1111122' 
LUMCON,ioos:station:LUMCON:101:1,2017-01-01T12:30:00Z,29.2533,-90.6633,1.0,2.9,186.0,-9999.0,'1111122,1111122,1111122' 
LUMCON,ioos:station:LUMCON:101:1,2017-01-01T12:45:00Z,29.2533,-90.6633,1.0,2.9,185.0,-9999.0,'1111122,1111122,1111122' 
LUMCON,ioos:station:LUMCON:101:1,2017-01-01T13:00:00Z,29.2533,-90.6633,1.0,5.6,188.0,-9999.0,'1111122,1111122,1111122' 
LUMCON,ioos:station:LUMCON:101:1,2017-01-01T13:15:00Z,29.2533,-90.6633,1.0,3.1,196.0,-9999.0,'1111122,1111122,1111122' 
LUMCON,ioos:station:LUMCON:101:1,2017-01-01T13:30:00Z,29.2533,-90.6633,1.0,5.6,206.0,-9999.0,'1111122,1111122,1111122' 
LUMCON,ioos:station:LUMCON:101:1,2017-01-01T13:45:00Z,29.2533,-90.6633,1.0,5.2,226.0,-9999.0,'1111122,1111122,1111122' 
LUMCON,ioos:station:LUMCON:101:1,2017-01-01T14:00:00Z,29.2533,-90.6633,1.0,8.3,200.0,-9999.0,'1111122,1111122,1111122' 
LUMCON,ioos:station:LUMCON:101:1,2017-01-01T14:15:00Z,29.2533,-90.6633,1.0,5.9,184.0,-9999.0,'1111122,1111122,1111122' 
LUMCON,ioos:station:LUMCON:101:1,2017-01-01T14:30:00Z,29.2533,-90.6633,1.0,7.8,181.0,-9999.0,'1111122,1111122,1111122' 
LUMCON,ioos:station:LUMCON:101:1,2017-01-01T14:45:00Z,29.2533,-90.6633,1.0,6.1,181.0,-9999.0,'1111122,1111122,1111122' 
LUMCON,ioos:station:LUMCON:101:1,2017-01-01T15:00:00Z,29.2533,-90.6633,1.0,5.2,178.0,-9999.0,'1111122,1111122,1111122' 
LUMCON,ioos:station:LUMCON:101:1,2017-01-01T15:15:00Z,29.2533,-90.6633,1.0,8.4,176.0,-9999.0,'1111122,1111122,1111122' 
LUMCON,ioos:station:LUMCON:101:1,2017-01-01T15:30:00Z,29.2533,-90.6633,1.0,5.3,147.0,-9999.0,'1111122,1111122,1111122' 
LUMCON,ioos:station:LUMCON:101:1,2017-01-01T15:45:00Z,29.2533,-90.6633,1.0,6.2,166.0,-9999.0,'1111122,1111122,1111122' 
LUMCON,ioos:station:LUMCON:101:1,2017-01-01T16:00:00Z,29.2533,-90.6633,1.0,7.2,178.0,-9999.0,'1111122,1111122,1111122' 
LUMCON,ioos:station:LUMCON:101:1,2017-01-01T16:15:00Z,29.2533,-90.6633,1.0,6.1,164.0,-9999.0,'1111122,1111122,1111122' 
LUMCON,ioos:station:LUMCON:101:1,2017-01-01T16:30:00Z,29.2533,-90.6633,1.0,5.9,155.0,-9999.0,'1111122,1111122,1111122' 
LUMCON,ioos:station:LUMCON:101:1,2017-01-01T16:45:00Z,29.2533,-90.6633,1.0,8.3,168.0,-9999.0,'1111122,1111122,1111122' 
LUMCON,ioos:station:LUMCON:101:1,2017-01-01T17:00:00Z,29.2533,-90.6633,1.0,6.3,182.0,-9999.0,'1111122,1111122,1111122' 
LUMCON,ioos:station:LUMCON:101:1,2017-01-01T17:15:00Z,29.2533,-90.6633,1.0,4.7,160.0,-9999.0,'1111122,1111122,1111122' 
LUMCON,ioos:station:LUMCON:101:1,2017-01-01T17:30:00Z,29.2533,-90.6633,1.0,6.8,169.0,-9999.0,'1111122,1111122,1111122' 
LUMCON,ioos:station:LUMCON:101:1,2017-01-01T17:45:00Z,29.2533,-90.6633,1.0,6.3,153.0,-9999.0,'1111122,1111122,1111122' 
LUMCON,ioos:station:LUMCON:101:1,2017-01-01T18:00:00Z,29.2533,-90.6633,1.0,6.7,178.0,-9999.0,'1111122,1111122,1111122' 
LUMCON,ioos:station:LUMCON:101:1,2017-01-01T18:15:00Z,29.2533,-90.6633,1.0,5.7,175.0,-9999.0,'1111122,1111122,1111122' 
LUMCON,ioos:station:LUMCON:101:1,2017-01-01T18:30:00Z,29.2533,-90.6633,1.0,5.9,168.0,-9999.0,'1111122,1111122,1111122' 
LUMCON,ioos:station:LUMCON:101:1,2017-01-01T18:45:00Z,29.2533,-90.6633,1.0,4.1,157.0,-9999.0,'1111122,1111122,1111122' 
LUMCON,ioos:station:LUMCON:101:1,2017-01-01T19:00:00Z,29.2533,-90.6633,1.0,6.7,167.0,-9999.0,'1111122,1111122,1111122' 
LUMCON,ioos:station:LUMCON:101:1,2017-01-01T19:15:00Z,29.2533,-90.6633,1.0,3.6,190.0,-9999.0,'1111122,1111122,1111122' 
LUMCON,ioos:station:LUMCON:101:1,2017-01-01T19:30:00Z,29.2533,-90.6633,1.0,3.3,168.0,-9999.0,'1111122,1111122,1111122' 
LUMCON,ioos:station:LUMCON:101:1,2017-01-01T19:45:00Z,29.2533,-90.6633,1.0,3.3,175.0,-9999.0,'1111122,1111122,1111122' 
LUMCON,ioos:station:LUMCON:101:1,2017-01-01T20:00:00Z,29.2533,-90.6633,1.0,3.5,171.0,-9999.0,'1111122,1111122,1111122' 
LUMCON,ioos:station:LUMCON:101:1,2017-01-01T20:15:00Z,29.2533,-90.6633,1.0,3.9,154.0,-9999.0,'1111122,1111122,1111122' 
LUMCON,ioos:station:LUMCON:101:1,2017-01-01T20:30:00Z,29.2533,-90.6633,1.0,4.0,159.0,-9999.0,'1111122,1111122,1111122' 
LUMCON,ioos:station:LUMCON:101:1,2017-01-01T20:45:00Z,29.2533,-90.6633,1.0,5.9,162.0,-9999.0,'1111122,1111122,1111122' 
LUMCON,ioos:station:LUMCON:101:1,2017-01-01T21:00:00Z,29.2533,-90.6633,1.0,6.6,171.0,-9999.0,'1111122,1111122,1111122' 
LUMCON,ioos:station:LUMCON:101:1,2017-01-01T21:15:00Z,29.2533,-90.6633,1.0,4.0,158.0,-9999.0,'1111122,1111122,1111122' 
LUMCON,ioos:station:LUMCON:101:1,2017-01-01T21:30:00Z,29.2533,-90.6633,1.0,5.5,157.0,-9999.0,'1111122,1111122,1111122' 
LUMCON,ioos:station:LUMCON:101:1,2017-01-01T21:45:00Z,29.2533,-90.6633,1.0,5.2,132.0,-9999.0,'1111122,1111122,1111122' 
LUMCON,ioos:station:LUMCON:101:1,2017-01-01T22:00:00Z,29.2533,-90.6633,1.0,4.7,137.0,-9999.0,'1111122,1111122,1111122' 
LUMCON,ioos:station:LUMCON:101:1,2017-01-01T22:15:00Z,29.2533,-90.6633,1.0,5.5,138.0,-9999.0,'1111122,1111122,1111122' 
LUMCON,ioos:station:LUMCON:101:1,2017-01-01T22:30:00Z,29.2533,-90.6633,1.0,4.2,160.0,-9999.0,'1111122,1111122,1111122' 
LUMCON,ioos:station:LUMCON:101:1,2017-01-01T22:45:00Z,29.2533,-90.6633,1.0,7.5,294.0,-9999.0,'1111122,1111122,1111122' 
LUMCON,ioos:station:LUMCON:101:1,2017-01-01T23:00:00Z,29.2533,-90.6633,1.0,7.3,296.0,-9999.0,'1111122,1111122,1111122' 
LUMCON,ioos:station:LUMCON:101:1,2017-01-01T23:15:00Z,29.2533,-90.6633,1.0,7.0,311.0,-9999.0,'1111122,1111122,1111122' 
LUMCON,ioos:station:LUMCON:101:1,2017-01-01T23:30:00Z,29.2533,-90.6633,1.0,3.8,312.0,-9999.0,'1111122,1111122,1111122' 
LUMCON,ioos:station:LUMCON:101:1,2017-01-01T23:45:00Z,29.2533,-90.6633,1.0,5.4,298.0,-9999.0,'1111122,1111122,1111122' 
LUMCON,ioos:station:LUMCON:101:1,2017-01-02T00:00:00Z,29.2533,-90.6633,1.0,3.1,309.0,-9999.0,'1111122,1111122,1111122' 
LUMCON,ioos:station:LUMCON:101:1,2017-01-02T00:15:00Z,29.2533,-90.6633,1.0,2.8,278.0,-9999.0,'1111122,1111122,1111122' 
LUMCON,ioos:station:LUMCON:101:1,2017-01-02T00:30:00Z,29.2533,-90.6633,1.0,1.5,253.0,-9999.0,'1111122,1111122,1111122' 
LUMCON,ioos:station:LUMCON:101:1,2017-01-02T00:45:00Z,29.2533,-90.6633,1.0,1.4,54.0,-9999.0,'1111122,1111122,1111122' 
LUMCON,ioos:station:LUMCON:101:1,2017-01-02T01:00:00Z,29.2533,-90.6633,1.0,-9999.0,0.0,-9999.0,'1111122,1114422,1111122' 
LUMCON,ioos:station:LUMCON:101:1,2017-01-02T01:15:00Z,29.2533,-90.6633,1.0,5.4,84.0,-9999.0,'1111122,1111122,1111122' 
LUMCON,ioos:station:LUMCON:101:1,2017-01-02T01:30:00Z,29.2533,-90.6633,1.0,4.2,71.0,-9999.0,'1111122,1111122,1111122' 
LUMCON,ioos:station:LUMCON:101:1,2017-01-02T01:45:00Z,29.2533,-90.6633,1.0,3.7,72.0,-9999.0,'1111122,1111122,1111122' 
LUMCON,ioos:station:LUMCON:101:1,2017-01-02T02:00:00Z,29.2533,-90.6633,1.0,5.7,94.0,-9999.0,'1111122,1111122,1111122' 
LUMCON,ioos:station:LUMCON:101:1,2017-01-02T02:15:00Z,29.2533,-90.6633,1.0,4.2,105.0,-9999.0,'1111122,1111122,1111122' 
LUMCON,ioos:station:LUMCON:101:1,2017-01-02T02:30:00Z,29.2533,-90.6633,1.0,6.2,90.0,-9999.0,'1111122,1111122,1111122' 
LUMCON,ioos:station:LUMCON:101:1,2017-01-02T02:45:00Z,29.2533,-90.6633,1.0,3.5,94.0,-9999.0,'1111122,1111122,1111122' 
LUMCON,ioos:station:LUMCON:101:1,2017-01-02T03:00:00Z,29.2533,-90.6633,1.0,3.7,70.0,-9999.0,'1111122,1111122,1111122' 
LUMCON,ioos:station:LUMCON:101:1,2017-01-02T03:15:00Z,29.2533,-90.6633,1.0,2.3,47.0,-9999.0,'1111122,1111122,1111122' 
LUMCON,ioos:station:LUMCON:101:1,2017-01-02T03:30:00Z,29.2533,-90.6633,1.0,3.8,83.0,-9999.0,'1111122,1111122,1111122' 
LUMCON,ioos:station:LUMCON:101:1,2017-01-02T03:45:00Z,29.2533,-90.6633,1.0,3.5,85.0,-9999.0,'1111122,1111122,1111122' 
LUMCON,ioos:station:LUMCON:101:1,2017-01-02T04:00:00Z,29.2533,-90.6633,1.0,4.1,99.0,-9999.0,'1111122,1111122,1111122' 
LUMCON,ioos:station:LUMCON:101:1,2017-01-02T04:15:00Z,29.2533,-90.6633,1.0,4.4,91.0,-9999.0,'1111122,1111122,1111122' 
LUMCON,ioos:station:LUMCON:101:1,2017-01-02T04:30:00Z,29.2533,-90.6633,1.0,4.5,92.0,-9999.0,'1111122,1111122,1111122' 
LUMCON,ioos:station:LUMCON:101:1,2017-01-02T04:45:00Z,29.2533,-90.6633,1.0,3.4,89.0,-9999.0,'1111122,1111122,1111122' 
LUMCON,ioos:station:LUMCON:101:1,2017-01-02T05:00:00Z,29.2533,-90.6633,1.0,3.5,60.0,-9999.0,'1111122,1111122,1111122' 
LUMCON,ioos:station:LUMCON:101:1,2017-01-02T05:15:00Z,29.2533,-90.6633,1.0,-9999.0,0.0,-9999.0,'1111122,1114422,1111122' 
LUMCON,ioos:station:LUMCON:101:1,2017-01-02T05:30:00Z,29.2533,-90.6633,1.0,4.5,82.0,-9999.0,'1111122,1111122,1111122' 
LUMCON,ioos:station:LUMCON:101:1,2017-01-02T05:45:00Z,29.2533,-90.6633,1.0,5.2,74.0,-9999.0,'1111122,1111122,1111122' 
LUMCON,ioos:station:LUMCON:101:1,2017-01-02T06:00:00Z,29.2533,-90.6633,1.0,2.1,82.0,-9999.0,'1111122,1111122,1111122' 
LUMCON,ioos:station:LUMCON:101:1,2017-01-02T06:15:00Z,29.2533,-90.6633,1.0,4.9,69.0,-9999.0,'1111122,1111122,1111122' 
LUMCON,ioos:station:LUMCON:101:1,2017-01-02T06:30:00Z,29.2533,-90.6633,1.0,2.1,71.0,-9999.0,'1111122,1111122,1111122' 
LUMCON,ioos:station:LUMCON:101:1,2017-01-02T06:45:00Z,29.2533,-90.6633,1.0,3.1,80.0,-9999.0,'1111122,1111122,1111122' 
LUMCON,ioos:station:LUMCON:101:1,2017-01-02T07:00:00Z,29.2533,-90.6633,1.0,3.2,81.0,-9999.0,'1111122,1111122,1111122' 
LUMCON,ioos:station:LUMCON:101:1,2017-01-02T07:15:00Z,29.2533,-90.6633,1.0,3.5,85.0,-9999.0,'1111122,1111122,1111122' 
LUMCON,ioos:station:LUMCON:101:1,2017-01-02T07:30:00Z,29.2533,-90.6633,1.0,4.1,69.0,-9999.0,'1111122,1111122,1111122' 
LUMCON,ioos:station:LUMCON:101:1,2017-01-02T07:45:00Z,29.2533,-90.6633,1.0,3.7,92.0,-9999.0,'1111122,1111122,1111122' 
LUMCON,ioos:station:LUMCON:101:1,2017-01-02T08:00:00Z,29.2533,-90.6633,1.0,4.3,91.0,-9999.0,'1111122,1111122,1111122' 
LUMCON,ioos:station:LUMCON:101:1,2017-01-02T08:15:00Z,29.2533,-90.6633,1.0,2.8,91.0,-9999.0,'1111122,1111122,1111122' 
LUMCON,ioos:station:LUMCON:101:1,2017-01-02T08:30:00Z,29.2533,-90.6633,1.0,4.9,90.0,-9999.0,'1111122,1111122,1111122' 
LUMCON,ioos:station:LUMCON:101:1,2017-01-02T08:45:00Z,29.2533,-90.6633,1.0,4.3,91.0,-9999.0,'1111122,1111122,1111122' 
LUMCON,ioos:station:LUMCON:101:1,2017-01-02T09:00:00Z,29.2533,-90.6633,1.0,3.9,75.0,-9999.0,'1111122,1111122,1111122' 
LUMCON,ioos:station:LUMCON:101:1,2017-01-02T09:15:00Z,29.2533,-90.6633,1.0,3.5,89.0,-9999.0,'1111122,1111122,1111122' 
LUMCON,ioos:station:LUMCON:101:1,2017-01-02T09:30:00Z,29.2533,-90.6633,1.0,4.1,100.0,-9999.0,'1111122,1111122,1111122' 
LUMCON,ioos:station:LUMCON:101:1,2017-01-02T09:45:00Z,29.2533,-90.6633,1.0,3.5,100.0,-9999.0,'1111122,1111122,1111122' 
LUMCON,ioos:station:LUMCON:101:1,2017-01-02T10:00:00Z,29.2533,-90.6633,1.0,4.5,107.0,-9999.0,'1111122,1111122,1111122' 
LUMCON,ioos:station:LUMCON:101:1,2017-01-02T10:15:00Z,29.2533,-90.6633,1.0,4.7,107.0,-9999.0,'1111122,1111122,1111122' 
LUMCON,ioos:station:LUMCON:101:1,2017-01-02T10:30:00Z,29.2533,-90.6633,1.0,5.2,112.0,-9999.0,'1111122,1111122,1111122' 
LUMCON,ioos:station:LUMCON:101:1,2017-01-02T10:45:00Z,29.2533,-90.6633,1.0,4.8,118.0,-9999.0,'1111122,1111122,1111122' 
LUMCON,ioos:station:LUMCON:101:1,2017-01-02T11:00:00Z,29.2533,-90.6633,1.0,4.3,123.0,-9999.0,'1111122,1111122,1111122' 
LUMCON,ioos:station:LUMCON:101:1,2017-01-02T11:15:00Z,29.2533,-90.6633,1.0,4.2,122.0,-9999.0,'1111122,1111122,1111122' 
LUMCON,ioos:station:LUMCON:101:1,2017-01-02T11:30:00Z,29.2533,-90.6633,1.0,4.5,128.0,-9999.0,'1111122,1111122,1111122' 
LUMCON,ioos:station:LUMCON:101:1,2017-01-02T11:45:00Z,29.2533,-90.6633,1.0,3.7,123.0,-9999.0,'1111122,1111122,1111122' 
LUMCON,ioos:station:LUMCON:101:1,2017-01-02T12:00:00Z,29.2533,-90.6633,1.0,4.9,128.0,-9999.0,'1111122,1111122,1111122' 
LUMCON,ioos:station:LUMCON:101:1,2017-01-02T12:15:00Z,29.2533,-90.6633,1.0,5.4,120.0,-9999.0,'1111122,1111122,1111122' 
LUMCON,ioos:station:LUMCON:101:1,2017-01-02T12:30:00Z,29.2533,-90.6633,1.0,4.5,134.0,-9999.0,'1111122,1111122,1111122' 
LUMCON,ioos:station:LUMCON:101:1,2017-01-02T12:45:00Z,29.2533,-90.6633,1.0,5.1,125.0,-9999.0,'1111122,1111122,1111122' 
LUMCON,ioos:station:LUMCON:101:1,2017-01-02T13:00:00Z,29.2533,-90.6633,1.0,5.8,137.0,-9999.0,'1111122,1111122,1111122' 
LUMCON,ioos:station:LUMCON:101:1,2017-01-02T13:15:00Z,29.2533,-90.6633,1.0,6.6,132.0,-9999.0,'1111122,1111122,1111122' 
LUMCON,ioos:station:LUMCON:101:1,2017-01-02T13:30:00Z,29.2533,-90.6633,1.0,7.1,138.0,-9999.0,'1111122,1111122,1111122' 
LUMCON,ioos:station:LUMCON:101:1,2017-01-02T13:45:00Z,29.2533,-90.6633,1.0,5.4,130.0,-9999.0,'1111122,1111122,1111122' 
LUMCON,ioos:station:LUMCON:101:1,2017-01-02T14:00:00Z,29.2533,-90.6633,1.0,6.1,139.0,-9999.0,'1111122,1111122,1111122' 
LUMCON,ioos:station:LUMCON:101:1,2017-01-02T14:15:00Z,29.2533,-90.6633,1.0,5.7,139.0,-9999.0,'1111122,1111122,1111122' 
LUMCON,ioos:station:LUMCON:101:1,2017-01-02T14:30:00Z,29.2533,-90.6633,1.0,5.8,140.0,-9999.0,'1111122,1111122,1111122' 
LUMCON,ioos:station:LUMCON:101:1,2017-01-02T14:45:00Z,29.2533,-90.6633,1.0,5.2,131.0,-9999.0,'1111122,1111122,1111122' 
LUMCON,ioos:station:LUMCON:101:1,2017-01-02T15:00:00Z,29.2533,-90.6633,1.0,3.8,136.0,-9999.0,'1111122,1111122,1111122' 
LUMCON,ioos:station:LUMCON:101:1,2017-01-02T15:15:00Z,29.2533,-90.6633,1.0,5.8,140.0,-9999.0,'1111122,1111122,1111122' 
LUMCON,ioos:station:LUMCON:101:1,2017-01-02T15:30:00Z,29.2533,-90.6633,1.0,6.4,141.0,-9999.0,'1111122,1111122,1111122' 
LUMCON,ioos:station:LUMCON:101:1,2017-01-02T15:45:00Z,29.2533,-90.6633,1.0,7.9,134.0,-9999.0,'1111122,1111122,1111122' 
LUMCON,ioos:station:LUMCON:101:1,2017-01-02T16:00:00Z,29.2533,-90.6633,1.0,6.4,149.0,-9999.0,'1111122,1111122,1111122' 
LUMCON,ioos:station:LUMCON:101:1,2017-01-02T16:15:00Z,29.2533,-90.6633,1.0,8.6,142.0,-9999.0,'1111122,1111122,1111122' 
LUMCON,ioos:station:LUMCON:101:1,2017-01-02T16:30:00Z,29.2533,-90.6633,1.0,5.4,167.0,-9999.0,'1111122,1111122,1111122' 
LUMCON,ioos:station:LUMCON:101:1,2017-01-02T16:45:00Z,29.2533,-90.6633,1.0,8.6,149.0,-9999.0,'1111122,1111122,1111122' 
LUMCON,ioos:station:LUMCON:101:1,2017-01-02T17:00:00Z,29.2533,-90.6633,1.0,7.2,170.0,-9999.0,'1111122,1111122,1111122' 
LUMCON,ioos:station:LUMCON:101:1,2017-01-02T17:15:00Z,29.2533,-90.6633,1.0,8.6,154.0,-9999.0,'1111122,1111122,1111122' 
LUMCON,ioos:station:LUMCON:101:1,2017-01-02T17:30:00Z,29.2533,-90.6633,1.0,8.0,163.0,-9999.0,'1111122,1111122,1111122' 
LUMCON,ioos:station:LUMCON:101:1,2017-01-02T17:45:00Z,29.2533,-90.6633,1.0,9.4,171.0,-9999.0,'1111122,1111122,1111122' 
LUMCON,ioos:station:LUMCON:101:1,2017-01-02T18:00:00Z,29.2533,-90.6633,1.0,7.3,158.0,-9999.0,'1111122,1111122,1111122' 
LUMCON,ioos:station:LUMCON:101:1,2017-01-02T18:15:00Z,29.2533,-90.6633,1.0,7.3,173.0,-9999.0,'1111122,1111122,1111122' 
LUMCON,ioos:station:LUMCON:101:1,2017-01-02T18:30:00Z,29.2533,-90.6633,1.0,10.3,177.0,-9999.0,'1111122,1111122,1111122' 
LUMCON,ioos:station:LUMCON:101:1,2017-01-02T18:45:00Z,29.2533,-90.6633,1.0,10.2,178.0,-9999.0,'1111122,1111122,1111122' 
LUMCON,ioos:station:LUMCON:101:1,2017-01-02T19:00:00Z,29.2533,-90.6633,1.0,8.7,185.0,-9999.0,'1111122,1111122,1111122' 
LUMCON,ioos:station:LUMCON:101:1,2017-01-02T19:15:00Z,29.2533,-90.6633,1.0,9.3,174.0,-9999.0,'1111122,1111122,1111122' 
LUMCON,ioos:station:LUMCON:101:1,2017-01-02T19:30:00Z,29.2533,-90.6633,1.0,12.5,184.0,-9999.0,'1111122,1111122,1111122' 
LUMCON,ioos:station:LUMCON:101:1,2017-01-02T19:45:00Z,29.2533,-90.6633,1.0,10.0,187.0,-9999.0,'1111122,1111122,1111122' 
LUMCON,ioos:station:LUMCON:101:1,2017-01-02T20:00:00Z,29.2533,-90.6633,1.0,7.6,190.0,-9999.0,'1111122,1111122,1111122' 
LUMCON,ioos:station:LUMCON:101:1,2017-01-02T20:15:00Z,29.2533,-90.6633,1.0,8.6,174.0,-9999.0,'1111122,1111122,1111122' 
LUMCON,ioos:station:LUMCON:101:1,2017-01-02T20:30:00Z,29.2533,-90.6633,1.0,6.9,183.0,-9999.0,'1111122,1111122,1111122' 
LUMCON,ioos:station:LUMCON:101:1,2017-01-02T20:45:00Z,29.2533,-90.6633,1.0,12.2,178.0,-9999.0,'1111122,1111122,1111122' 
LUMCON,ioos:station:LUMCON:101:1,2017-01-02T21:00:00Z,29.2533,-90.6633,1.0,11.7,173.0,-9999.0,'1111122,1111122,1111122' 
LUMCON,ioos:station:LUMCON:101:1,2017-01-02T21:15:00Z,29.2533,-90.6633,1.0,8.9,182.0,-9999.0,'1111122,1111122,1111122' 
LUMCON,ioos:station:LUMCON:101:1,2017-01-02T21:30:00Z,29.2533,-90.6633,1.0,8.6,186.0,-9999.0,'1111122,1111122,1111122' 
LUMCON,ioos:station:LUMCON:101:1,2017-01-02T21:45:00Z,29.2533,-90.6633,1.0,8.2,196.0,-9999.0,'1111122,1111122,1111122' 
LUMCON,ioos:station:LUMCON:101:1,2017-01-02T22:00:00Z,29.2533,-90.6633,1.0,8.7,194.0,-9999.0,'1111122,1111122,1111122' 
LUMCON,ioos:station:LUMCON:101:1,2017-01-02T22:15:00Z,29.2533,-90.6633,1.0,10.6,217.0,-9999.0,'1111122,1111122,1111122' 
LUMCON,ioos:station:LUMCON:101:1,2017-01-02T22:30:00Z,29.2533,-90.6633,1.0,4.8,261.0,-9999.0,'1111122,1111122,1111122' 
LUMCON,ioos:station:LUMCON:101:1,2017-01-02T22:45:00Z,29.2533,-90.6633,1.0,3.1,236.0,-9999.0,'1111122,1111122,1111122' 
LUMCON,ioos:station:LUMCON:101:1,2017-01-02T23:00:00Z,29.2533,-90.6633,1.0,3.4,232.0,-9999.0,'1111122,1111122,1111122' 
LUMCON,ioos:station:LUMCON:101:1,2017-01-02T23:15:00Z,29.2533,-90.6633,1.0,3.5,205.0,-9999.0,'1111122,1111122,1111122' 
LUMCON,ioos:station:LUMCON:101:1,2017-01-02T23:30:00Z,29.2533,-90.6633,1.0,3.8,212.0,-9999.0,'1111122,1111122,1111122' 
LUMCON,ioos:station:LUMCON:101:1,2017-01-02T23:45:00Z,29.2533,-90.6633,1.0,3.1,204.0,-9999.0,'1111122,1111122,1111122' 
LUMCON,ioos:station:LUMCON:101:1,2017-01-03T00:00:00Z,29.2533,-90.6633,1.0,3.1,176.0,-9999.0,'1111122,1111122,1111122' 
LUMCON,ioos:station:LUMCON:101:1,2017-01-03T00:15:00Z,29.2533,-90.6633,1.0,3.0,164.0,-9999.0,'1111122,1111122,1111122' 
LUMCON,ioos:station:LUMCON:101:1,2017-01-03T00:30:00Z,29.2533,-90.6633,1.0,3.8,190.0,-9999.0,'1111122,1111122,1111122' 
LUMCON,ioos:station:LUMCON:101:1,2017-01-03T00:45:00Z,29.2533,-90.6633,1.0,3.5,182.0,-9999.0,'1111122,1111122,1111122' 
LUMCON,ioos:station:LUMCON:101:1,2017-01-03T01:00:00Z,29.2533,-90.6633,1.0,3.1,175.0,-9999.0,'1111122,1111122,1111122' 
LUMCON,ioos:station:LUMCON:101:1,2017-01-03T01:15:00Z,29.2533,-90.6633,1.0,2.7,181.0,-9999.0,'1111122,1111122,1111122' 
LUMCON,ioos:station:LUMCON:101:1,2017-01-03T01:30:00Z,29.2533,-90.6633,1.0,3.0,182.0,-9999.0,'1111122,1111122,1111122' 